Simultaneous Nadir Overpasses (SNOs) Predictions

Prediction of SNOs between METOP-B and NOAA-19 Satellite Orbit:

Table of predicted SNOs for the next 14.0 days since TLE Epoch: 9/13/2014
Index Date (METOP-B) Time (METOP-B) Lat,Lon (METOP-B) SZA (METOP-B ) Date (NOAA-19) Time (NOAA-19) Lat,Lon (NOAA-19) SZA (NOAA-19 ) Distance(km) Time Diff (sec)
1 09/14/2014 05:20:43 74.51, 95.72 71.00 09/14/2014 05:19:31 74.54, 94.52 71.07 35.73 72
2 09/14/2014 06:11:29 -74.30, -97.49 109.19 09/14/2014 06:10:24 -74.29, -97.56 109.18 2.06 65
3 09/14/2014 07:02:09 74.29, 69.82 70.82 09/14/2014 07:01:29 74.28, 69.71 70.82 3.19 40
4 09/14/2014 07:52:52 -74.23,-123.01 109.23 09/14/2014 07:52:26 -74.23,-122.89 109.23 3.73 26
5 09/14/2014 08:43:32 74.22, 44.29 70.78 09/14/2014 08:43:31 74.21, 44.38 70.77 2.82 1
6 09/14/2014 09:34:14 -74.20,-148.41 109.22 09/14/2014 09:34:29 -74.20,-148.35 109.22 1.86 15
7 09/14/2014 10:24:54 74.19, 18.90 70.78 09/14/2014 10:25:34 74.19, 18.93 70.78 1.08 40
8 09/14/2014 11:15:36 -74.18,-173.80 109.22 09/14/2014 11:16:32 -74.18,-173.80 109.22 0.27 56
9 09/14/2014 12:06:21 73.92, -7.11 70.55 09/14/2014 12:07:32 73.92, -5.91 70.53 36.86 71
10 09/24/2014 11:58:58 74.69, -3.39 75.16 09/24/2014 11:57:48 74.68, -5.31 75.17 56.42 70
11 09/24/2014 12:49:47 -74.33, 162.99 105.18 09/24/2014 12:48:37 -74.33, 162.92 105.18 2.35 70
12 09/24/2014 13:40:28 74.28, -29.81 74.78 09/24/2014 13:39:43 74.28, -29.72 74.78 2.79 45
13 09/24/2014 14:31:10 -74.26, 137.47 105.23 09/24/2014 14:30:39 -74.26, 137.59 105.23 3.46 31
14 09/24/2014 15:21:50 74.26, -55.21 74.79 09/24/2014 15:21:46 74.26, -55.18 74.79 1.01 4
15 09/24/2014 16:12:32 -74.24, 112.07 105.22 09/24/2014 16:12:42 -74.24, 112.13 105.22 1.67 10
16 09/24/2014 17:03:12 74.23, -80.61 74.79 09/24/2014 17:03:49 74.24, -80.64 74.79 0.88 37
17 09/24/2014 17:53:54 -74.22, 86.67 105.22 09/24/2014 17:54:45 -74.22, 86.67 105.21 0.69 51
18 09/24/2014 18:44:37 74.06,-106.38 74.65 09/24/2014 18:45:50 74.12,-105.84 74.70 17.46 73




NCC Satellite Simultaneous Nadir Overpasses (SNOs) Prediction Service
